Theta_e
303 302 302 304 303 304 304 304 306 305 305 299 297 303 298 297 295 307 309 312 309 302 294 295 293 290 293 296 295 295 295 293 294 294 295 293 296 293 293 293 292 293 292 292 290 292 287 289 287 290 290 292 294 296 297 298 296 295 286 291 287 293 287 284 285 288 286 287 287 286 286 288 286 285 286 285 284 285 285 285 285 283 283 281 281 279 283
303 303 302 302 302 304 303 303 305 305 304 299 299 298 295 297 297 301 309 311 307 299 289 289 290 292 294 294 294 297 295 295 293 294 294 293 291 293 292 293 295 292 293 290 289 293 285 289 290 288 290 289 298 298 297 297 292 294 288 290 290 286 285 285 282 283 282 284 288 287 285 284 282 282 285 286 287 286 285 285 284 281 282 283 280 276 282
301 301 303 303 304 302 302 302 302 304 305 302 299 293 296 295 298 300 303 308 305 295 297 294 291 291 291 292 291 293 293 296 296 295 294 295 293 292 291 295 293 291 293 292 292 292 292 288 290 289 288 289 294 295 296 297 294 294 294 294 293 287 284 283 279 277 276 276 277 279 283 282 282 283 285 286 286 286 283 281 283 279 283 284 281 280 286
299 300 301 302 302 303 303 301 301 302 304 304 299 296 293 290 285 295 297 302 300 299 301 298 294 291 289 289 291 293 291 294 296 296 294 297 296 296 294 291 294 293 290 289 289 289 292 290 286 288 285 287 289 293 294 294 294 292 294 293 292 285 285 285 284 283 281 284 285 287 286 283 282 283 283 284 286 287 286 284 282 280 283 282 284 285 285
300 299 300 300 301 301 302 302 301 301 302 303 299 295 294 293 286 288 286 296 297 295 297 296 296 292 295 288 292 290 291 292 293 296 291 295 295 294 294 291 290 288 290 289 290 291 289 290 289 287 287 288 288 290 290 291 293 293 290 292 289 285 284 285 285 285 286 288 287 289 289 285 286 286 285 286 286 286 285 283 281 286 282 279 285 287 285
300 300 299 299 299 300 301 301 302 301 301 302 297 288 292 285 288 291 293 288 285 289 290 295 291 293 294 291 293 291 290 291 288 292 295 294 293 289 288 293 293 292 291 291 287 289 289 289 287 289 289 288 290 290 291 289 291 291 286 290 288 285 283 286 286 285 287 288 288 289 288 287 287 287 287 286 287 286 284 284 286 286 282 280 286 287 285
299 299 299 299 299 299 300 300 301 302 301 300 294 285 287 289 288 288 293 286 290 289 288 288 289 289 290 288 291 289 290 290 292 291 287 291 288 294 287 290 292 292 293 290 288 289 285 285 289 288 288 288 288 287 288 290 292 290 287 287 286 286 283 286 286 285 286 287 287 288 287 286 287 286 287 287 287 286 286 286 287 286 285 287 287 287 287
299 299 299 299 299 299 299 299 300 300 301 297 291 289 285 283 287 284 290 288 287 287 286 286 287 285 289 286 288 290 288 287 290 290 291 287 290 295 290 291 292 291 291 290 288 289 291 290 287 288 287 287 287 287 289 288 286 289 287 286 285 288 283 289 286 284 284 286 287 287 287 286 285 286 287 287 287 287 287 287 287 287 286 287 287 286 286
299 299 299 299 299 299 299 298 299 299 300 288 287 285 288 289 292 292 285 281 284 285 284 285 286 284 287 286 287 290 289 288 288 286 292 289 287 290 288 285 284 285 286 286 287 290 285 284 285 285 285 282 289 287 284 292 287 283 283 284 283 287 284 289 285 282 280 286 285 285 286 285 284 285 286 286 286 284 286 285 287 286 284 286 286 284 285
298 298 299 299 299 299 299 299 299 299 300 290 288 283 289 288 289 291 288 280 285 283 284 284 283 280 285 287 287 288 286 287 288 283 291 293 292 288 286 286 285 283 285 285 287 286 287 288 289 289 290 291 291 293 292 293 289 285 285 287 284 284 283 283 284 281 280 286 286 285 285 283 280 281 285 287 287 288 289 289 290 289 289 285 283 284 290
299 299 298 298 299 298 298 299 299 300 295 288 287 284 288 286 286 288 287 279 280 281 281 281 281 282 285 285 284 287 286 286 286 282 282 289 287 289 287 286 284 283 284 286 289 290 290 291 291 291 291 291 291 292 293 293 294 292 288 285 283 285 285 284 286 281 281 286 285 286 282 275 276 288 291 290 287 288 286 286 288 290 290 288 290 290 292
299 299 299 299 299 299 299 299 299 299 299 292 292 288 289 290 289 287 281 277 278 282 279 277 280 282 283 284 284 283 283 283 283 287 283 285 286 288 286 286 286 280 290 290 290 291 292 292 291 291 290 290 290 290 290 289 291 293 292 288 286 285 285 284 286 282 280 285 285 280 275 276 287 291 292 292 292 291 289 289 290 290 291 291 290 291 291
299 299 299 299 299 299 299 299 299 299 299 295 293 287 289 291 287 284 283 280 277 280 278 279 281 281 281 282 281 282 283 284 285 285 284 283 283 285 286 285 283 286 290 288 290 288 283 281 284 285 285 286 286 287 287 288 288 291 292 291 288 286 285 284 283 284 284 281 280 274 275 284 284 290 291 292 292 291 289 286 289 290 291 291 289 291 292
299 299 299 299 299 299 299 299 299 299 299 297 292 290 290 290 287 286 284 280 278 281 280 280 281 279 280 280 280 281 281 281 281 281 279 282 281 282 284 285 288 291 289 290 285 284 280 281 278 280 280 283 283 282 284 287 288 288 288 290 291 288 287 286 281 286 278 279 280 279 285 285 284 285 285 287 285 285 285 281 285 290 291 291 290 290 292
299 299 299 299 299 299 299 299 299 298 298 298 294 292 291 291 289 285 284 284 277 280 281 275 278 280 281 280 280 279 279 279 279 279 281 282 281 282 284 285 286 286 287 284 281 282 279 279 274 274 276 276 273 276 285 281 286 289 289 289 290 290 285 286 283 280 285 278 277 279 278 275 281 289 290 293 292 292 291 287 284 288 285 288 288 288 290
299 299 298 298 298 299 299 299 298 298 298 299 294 291 291 292 291 289 286 283 280 274 278 282 282 280 279 279 280 278 278 279 278 277 276 276 279 281 281 283 285 285 283 281 280 278 277 274 272 273 271 274 278 279 277 284 278 282 284 288 288 289 289 286 283 281 282 280 277 276 275 278 286 287 291 292 292 292 290 284 281 284 284 287 285 283 284
299 299 298 299 298 298 298 298 298 298 298 298 291 291 289 293 291 288 285 283 280 276 284 284 285 283 280 279 281 279 280 277 279 275 274 275 277 278 279 279 279 282 281 279 275 274 271 272 273 274 275 278 274 274 280 278 277 279 284 284 284 284 285 284 281 279 281 279 277 275 281 279 280 281 284 288 289 291 284 275 276 283 285 285 284 282 282
298 298 299 299 299 298 298 298 298 298 298 299 295 290 289 292 292 290 285 283 280 279 283 284 281 278 278 279 277 279 280 279 278 278 278 278 275 274 275 277 275 279 281 275 272 271 270 271 269 271 270 277 279 278 271 277 275 276 275 276 278 280 281 282 278 280 280 280 278 281 282 284 279 280 284 284 286 285 277 272 278 284 284 284 283 281 281
298 298 298 298 298 298 298 298 298 298 298 298 296 291 290 292 292 291 285 282 281 276 283 285 286 282 284 285 282 282 281 280 280 277 275 276 277 277 277 275 280 273 274 267 272 268 269 268 272 271 271 273 277 271 277 271 273 275 273 274 274 275 279 280 282 278 278 279 278 278 282 280 281 282 285 284 284 279 273 277 282 284 282 283 283 281 281
298 298 297 298 297 298 298 298 298 298 298 298 296 289 291 293 292 291 285 282 283 280 283 283 284 281 284 282 280 279 279 280 280 278 277 274 278 278 278 273 275 272 269 275 270 273 270 270 273 274 270 273 274 278 272 273 278 273 274 275 273 274 274 271 273 277 280 280 277 276 273 279 283 281 280 282 273 272 280 282 285 285 283 282 282 282 280
297 297 297 297 297 297 297 297 297 297 297 298 297 289 288 291 293 292 292 287 282 278 280 287 287 285 285 284 285 284 282 279 280 278 279 278 278 277 268 270 267 267 263 269 266 268 270 265 268 268 272 270 269 274 268 271 272 277 276 274 275 279 272 273 276 280 272 272 273 272 276 278 284 281 274 279 280 283 284 284 282 283 282 281 281 280 281
298 297 297 297 297 297 297 298 298 297 298 298 297 288 286 291 292 292 293 290 283 281 283 287 287 285 287 288 287 287 286 285 286 286 281 278 278 280 276 276 271 270 270 271 266 267 269 267 269 266 264 266 269 267 268 267 266 273 276 276 268 282 274 275 272 278 274 271 276 278 280 281 283 284 281 281 283 284 285 285 283 280 280 283 280 280 281
297 298 298 297 297 297 297 297 297 297 297 298 296 289 286 288 288 292 291 285 287 288 289 287 288 287 289 290 290 290 289 290 288 287 286 281 277 278 278 277 275 279 274 279 273 273 269 268 268 269 269 270 269 268 267 268 266 269 269 276 276 278 279 281 277 275 280 281 281 280 280 280 280 282 282 281 282 285 284 283 280 281 282 282 280 281 281
298 297 296 297 298 297 297 296 296 297 298 298 296 289 287 289 288 288 287 286 284 281 284 286 283 280 283 284 288 290 290 289 289 289 289 287 278 278 280 279 280 278 274 279 281 275 270 271 269 273 270 273 273 268 268 267 269 270 272 271 275 277 278 276 273 275 273 268 278 277 278 280 280 280 281 284 285 285 283 280 281 281 282 281 281 281 281
297 296 296 297 297 296 297 297 296 296 297 297 295 294 291 288 290 289 283 278 278 278 274 278 281 285 287 288 289 287 288 290 291 290 289 288 285 280 279 283 284 280 279 280 280 276 273 273 273 273 269 275 275 266 273 269 268 274 268 271 272 271 277 272 273 273 272 271 277 278 280 280 280 279 278 279 281 281 280 280 280 280 280 281 281 282 280
296 297 296 296 296 296 297 296 296 296 297 297 296 288 286 287 290 290 285 285 282 278 274 274 279 286 286 284 283 286 289 289 289 288 288 288 288 287 285 285 283 284 282 281 277 277 274 270 270 269 269 270 279 270 269 273 272 272 271 270 274 274 275 268 270 271 274 276 277 278 279 277 277 278 278 279 279 278 278 279 279 279 279 280 279 279 278
297 297 296 296 296 296 296 297 297 296 296 296 294 290 288 288 290 288 285 285 279 274 277 274 279 279 279 282 286 286 287 287 287 287 287 288 287 287 286 285 283 283 282 280 281 278 274 273 273 271 274 272 275 269 271 269 271 269 269 273 275 273 270 274 272 268 268 269 273 275 270 270 275 276 277 277 278 277 277 277 277 277 277 277 276 277 278
296 296 297 297 296 296 296 295 296 296 296 296 294 291 288 287 288 290 290 287 282 276 277 276 273 273 275 275 281 284 286 287 287 286 286 286 287 287 285 284 284 282 281 280 275 276 274 273 272 277 275 272 271 270 276 275 274 270 271 273 276 273 273 273 270 269 269 274 275 276 275 274 275 276 277 277 277 276 275 275 275 276 276 276 276 275 275
295 295 295 296 296 295 295 296 296 295 296 295 289 285 285 287 289 291 291 290 288 283 281 281 282 280 275 278 283 283 285 286 285 285 285 285 285 285 284 283 282 282 280 279 279 277 274 274 277 273 269 274 272 268 271 266 267 267 270 275 276 276 278 276 276 276 276 277 276 274 273 273 276 275 275 275 275 274 273 275 275 274 274 275 274 274 273
295 295 295 295 296 296 296 296 296 296 296 290 285 283 280 283 288 288 291 291 288 283 277 276 273 277 281 281 279 280 280 283 283 284 283 283 283 283 283 283 282 284 280 277 277 273 276 275 277 277 278 279 273 267 269 268 268 270 275 275 276 276 277 277 278 275 274 277 274 274 274 275 275 274 273 274 273 272 271 271 272 272 272 273 272 272 272
295 295 295 295 296 296 296 296 296 296 295 287 281 277 277 274 282 291 293 291 289 283 278 279 275 280 277 277 278 279 279 281 280 281 281 283 283 283 284 283 282 283 278 279 278 278 279 273 275 276 278 279 278 268 270 270 268 270 275 276 277 277 277 277 278 278 275 272 271 272 271 273 274 272 272 272 271 271 270 270 271 272 271 271 270 270 270
295 295 295 295 296 296 295 295 295 295 290 283 283 281 283 282 286 288 293 292 288 283 278 274 275 275 273 277 277 280 281 282 282 279 279 283 280 282 281 281 279 282 282 278 278 275 275 278 277 277 276 280 280 272 273 270 268 269 275 275 277 277 278 277 278 274 269 271 270 271 273 275 271 269 269 270 269 269 269 269 270 269 270 269 269 268 268
295 294 294 295 296 296 295 296 296 293 287 290 294 295 295 295 295 294 293 288 283 281 282 277 273 275 272 271 271 272 277 276 275 278 275 281 277 279 277 281 281 280 285 280 276 274 279 278 278 275 277 280 274 274 271 270 271 275 276 277 277 278 277 274 272 269 269 269 269 266 268 269 269 270 269 268 268 268 268 268 268 268 266 265 265 265 267
294 294 294 295 295 295 294 295 295 294 293 287 281 284 288 294 294 295 289 285 280 280 280 275 271 271 271 271 266 271 280 274 271 277 271 277 278 278 275 277 280 277 279 277 278 277 273 276 274 275 276 271 275 269 268 272 275 275 276 277 275 271 269 270 271 268 267 266 267 267 267 268 268 268 267 267 266 267 267 267 265 263 263 263 264 265 266
293 294 294 294 295 295 293 293 286 284 282 284 283 285 288 293 294 294 291 283 275 275 275 275 273 268 268 268 266 270 277 274 270 276 273 272 281 276 276 271 273 273 275 282 276 275 273 274 277 271 270 272 267 267 270 273 274 275 276 275 267 267 267 267 268 265 264 264 264 264 265 266 265 263 264 264 264 265 264 264 264 262 262 263 264 264 264
293 294 294 294 295 293 287 289 285 282 280 281 282 290 292 293 293 292 289 284 280 276 275 274 276 271 270 267 266 268 279 272 275 275 275 272 272 276 275 274 270 274 278 277 272 275 272 277 272 269 275 270 268 270 273 274 273 270 265 264 263 263 262 263 262 262 261 261 261 262 264 263 262 262 263 263 263 263 263 262 262 262 262 262 262 263 263
293 293 295 293 287 284 281 280 285 283 281 285 287 291 292 290 285 285 283 281 282 282 275 274 272 272 273 269 270 271 275 266 273 271 271 271 267 271 273 271 270 275 271 269 269 269 274 279 273 269 270 268 271 272 264 264 263 263 263 262 262 262 262 263 262 260 259 259 260 262 262 260 260 260 261 261 261 261 260 260 260 260 259 260 260 261 261
292 293 286 281 279 278 276 278 277 280 292 290 291 286 282 285 277 277 278 276 279 281 276 276 272 273 272 270 267 276 274 268 272 268 268 270 270 266 270 269 267 272 262 264 269 277 271 269 267 268 269 274 268 261 263 261 261 261 260 261 260 260 260 261 260 258 256 257 259 258 257 258 258 259 258 258 259 258 259 260 260 260 260 260 260 260 260
290 285 280 281 278 274 274 273 285 293 287 284 281 276 272 275 276 273 273 276 277 272 276 274 272 274 269 267 269 279 273 266 267 267 265 271 269 263 268 264 270 270 263 265 266 277 265 265 264 265 265 269 266 259 259 260 259 259 258 260 260 259 259 260 260 258 256 256 257 257 257 256 256 257 258 258 258 259 259 259 259 259 259 259 259 259 258
282 279 279 279 277 278 283 286 293 288 284 277 277 274 269 273 271 268 276 270 272 274 276 270 276 273 274 272 271 271 281 272 268 267 266 268 273 263 266 262 266 265 258 261 264 272 263 260 262 261 264 264 259 257 257 257 257 257 257 258 258 258 258 259 259 259 259 258 258 258 258 258 258 258 257 257 257 256 257 257 258 258 258 257 258 258 257
280 279 278 276 277 280 282 283 278 275 277 275 273 273 271 268 270 269 271 268 266 265 270 269 271 269 273 276 275 271 276 278 272 271 269 266 273 270 262 262 267 260 261 260 267 266 264 261 261 261 262 257 255 256 256 256 256 257 256 257 257 257 258 257 258 258 257 257 257 257 257 256 256 256 256 256 256 256 256 256 256 256 256 256 256 256 257
284 281 280 282 282 281 280 278 276 275 275 276 269 267 270 270 271 267 270 265 266 266 265 268 264 265 263 272 271 273 270 273 270 272 263 261 271 267 263 262 265 260 257 264 265 264 262 260 259 261 256 253 256 255 255 253 255 254 255 256 256 256 256 256 256 257 257 256 256 255 255 255 255 255 255 255 255 255 255 255 255 255 255 256 257 257 257
289 285 284 278 277 277 279 274 277 275 269 269 268 264 268 264 267 264 264 269 267 264 265 270 268 276 273 273 269 272 272 278 272 268 263 261 272 268 262 263 260 257 259 262 261 261 260 258 258 259 253 254 253 253 253 254 254 255 255 256 255 256 256 255 255 254 255 255 254 254 254 254 254 254 254 254 254 254 254 255 255 255 255 256 256 256 257
285 283 278 276 275 275 276 266 275 269 267 268 265 263 263 259 262 262 260 260 264 263 266 267 268 271 266 269 268 270 267 270 276 266 267 270 264 262 264 260 262 265 264 261 262 260 261 261 259 253 250 251 252 253 253 253 253 253 253 254 255 255 255 255 254 253 253 254 254 254 254 253 253 254 254 254 254 253 253 254 255 255 256 256 256 256 257
278 275 275 273 269 274 271 265 269 267 263 264 268 261 262 261 263 263 263 261 263 264 267 267 267 267 266 268 267 267 274 264 269 262 263 267 263 264 259 258 261 261 258 259 258 256 255 260 251 251 252 251 253 253 253 253 253 252 252 252 253 253 253 252 252 252 252 252 252 253 252 253 253 253 253 253 253 254 253 253 254 255 255 255 256 256 257
275 273 272 269 266 270 267 263 262 258 263 267 264 261 260 260 260 261 258 257 260 263 264 264 265 268 267 270 268 267 269 267 265 264 266 266 261 261 264 263 262 260 261 258 256 258 262 256 250 251 252 252 252 252 252 252 252 252 251 250 251 251 251 251 251 251 251 252 252 252 252 253 252 252 252 253 253 253 253 254 255 255 256 256 256 256 257
275 276 273 271 267 268 267 261 261 259 259 257 257 258 259 258 258 259 258 259 259 262 262 263 264 266 265 266 267 267 267 267 263 267 265 262 263 266 270 262 260 259 256 257 256 257 255 249 249 251 251 252 251 251 251 251 252 251 251 251 251 251 251 251 251 251 252 252 252 252 252 252 252 253 253 252 253 254 254 255 256 257 257 256 257 258 258
271 275 271 265 264 264 262 261 258 258 258 258 259 260 260 259 258 257 257 258 259 261 259 261 262 262 262 268 266 263 263 267 264 266 267 263 264 258 260 260 259 259 256 254 258 250 249 250 250 251 251 251 251 250 250 251 251 250 250 250 250 250 251 251 251 251 252 252 251 252 252 252 252 252 252 252 253 254 256 256 257 257 257 257 257 257 257
273 269 267 263 265 264 262 261 261 259 257 259 260 260 258 258 256 255 255 255 256 255 257 259 262 264 264 268 266 266 265 268 261 262 265 263 259 259 258 254 255 253 255 248 249 247 249 250 250 251 250 250 250 250 250 250 250 250 250 250 250 251 251 251 251 252 252 252 251 251 251 252 252 253 253 254 254 255 256 257 257 257 257 257 256 256 256
270 268 265 262 262 261 260 260 261 258 259 261 260 258 259 257 255 254 256 254 255 255 261 265 268 267 266 266 262 264 260 263 262 264 261 259 258 258 259 255 257 255 251 246 247 249 250 250 251 249 250 249 250 250 250 250 251 251 251 251 251 251 251 251 251 252 251 252 252 252 252 253 253 253 254 254 255 256 256 257 257 256 256 256 256 256 256
267 263 258 258 259 259 258 260 260 258 257 258 258 257 257 256 257 255 257 254 254 256 259 260 264 260 261 264 262 257 260 261 258 259 258 257 259 256 255 259 254 243 244 248 249 250 250 249 249 248 249 249 249 250 250 250 249 249 250 250 251 251 251 252 252 252 252 252 252 253 253 253 254 254 255 256 256 256 255 256 256 256 256 256 256 255 254
266 261 258 258 258 256 255 254 253 252 251 251 251 254 256 253 255 255 257 257 255 257 259 259 260 261 260 258 259 258 259 259 259 257 257 257 249 252 254 249 244 244 246 246 247 248 248 248 248 248 248 248 249 249 249 249 249 249 250 250 251 251 251 251 252 252 252 252 253 253 253 254 254 255 256 256 255 254 254 253 255 255 255 255 255 255 255
Wind_Speed
13 9 8 8 9 10 10 11 11 12 14 4 5 3 2 5 7 3 7 13 19 10 9 8 6 7 4 2 3 2 5 3 4 5 5 7 5 2 5 7 8 9 9 6 7 7 7 8 10 6 7 12 14 11 10 5 10 6 2 4 1 5 3 5 10 8 5 4 1 4 1 2 2 4 2 1 5 6 11 12 7 10 7 10 9 14 9
10 12 11 9 7 5 8 9 10 10 11 4 4 2 3 2 3 2 5 10 4 9 10 7 11 8 4 6 8 6 4 5 7 8 5 5 3 9 6 5 12 10 6 4 7 9 8 8 17 8 10 11 14 19 19 12 5 2 5 5 2 3 3 2 5 5 4 6 9 5 0 3 3 3 5 5 4 3 4 3 1 9 10 14 12 16 7
9 8 10 13 12 7 5 6 9 8 10 8 3 2 3 3 3 5 2 6 8 13 6 10 8 9 12 8 12 7 4 5 13 12 8 4 5 2 5 8 3 5 4 8 7 8 16 8 8 9 7 8 5 11 12 15 11 7 4 8 5 7 3 2 6 11 12 11 10 13 15 7 2 2 5 6 8 9 3 8 6 13 8 14 13 13 11
9 9 7 7 10 13 12 8 7 8 6 10 3 2 2 1 4 2 3 6 8 7 6 11 8 7 7 10 11 10 12 5 9 10 14 13 9 11 3 3 2 9 6 9 10 13 10 15 3 9 4 5 4 8 13 10 10 7 12 10 7 3 4 7 11 12 15 15 13 1 6 2 2 4 6 7 7 8 8 5 6 11 11 14 13 16 18
9 7 8 8 7 9 11 11 7 6 6 5 3 3 2 4 3 3 4 4 13 13 5 8 9 15 8 9 4 15 16 9 6 12 9 7 13 7 9 5 5 3 9 13 14 13 10 12 12 12 8 7 6 0 5 6 9 14 7 5 5 2 6 12 16 19 16 14 13 12 10 11 14 13 14 12 12 11 12 12 17 15 13 19 14 20 20
8 8 8 8 8 7 8 8 9 7 7 6 2 0 2 4 4 2 2 3 3 6 9 6 6 8 5 11 5 14 13 11 10 3 13 6 5 5 1 14 16 16 15 10 12 7 15 11 14 13 14 11 10 13 9 8 10 14 4 9 8 8 12 14 14 20 18 21 20 22 22 20 21 22 21 23 21 18 17 20 21 18 18 23 18 18 21
10 9 8 8 9 8 7 6 6 7 8 4 0 0 4 2 3 3 5 4 3 3 4 8 5 7 3 3 3 11 11 16 8 5 2 4 4 12 12 10 16 21 20 16 14 13 12 14 13 13 10 16 13 12 7 14 14 13 9 6 5 4 11 12 17 23 20 22 22 23 25 22 21 21 22 23 23 24 22 24 24 24 24 22 21 23 28
10 10 9 9 8 8 7 7 7 6 5 2 1 2 2 2 3 3 4 1 6 10 4 3 7 8 6 5 5 3 4 7 9 5 3 4 4 3 17 14 10 10 14 16 18 19 21 20 16 5 6 10 8 14 13 9 2 11 11 6 4 11 8 15 17 16 18 22 22 24 24 24 24 23 23 23 22 23 25 23 20 20 22 23 28 28 28
11 11 11 9 9 8 8 7 6 6 2 2 1 2 2 3 1 1 4 5 5 4 2 3 4 5 3 7 6 7 7 5 10 7 4 9 8 6 8 12 14 8 9 10 12 11 15 16 13 13 11 9 5 7 2 7 11 4 5 3 3 13 9 7 7 12 15 16 21 24 22 25 26 25 23 24 25 26 24 20 19 19 25 27 27 22 20
12 12 12 11 10 10 9 8 6 5 3 3 2 1 2 2 3 1 1 6 5 7 3 5 3 10 9 7 4 3 3 7 7 8 5 1 4 9 11 9 9 9 10 11 10 13 13 14 14 13 14 14 14 13 15 12 8 2 7 4 6 9 5 8 11 17 16 13 19 21 22 20 21 23 25 31 30 27 22 22 22 24 23 23 19 22 21
13 13 13 12 11 11 10 9 9 8 1 2 2 2 2 1 1 2 1 6 5 7 4 7 10 6 8 7 12 10 9 8 6 6 4 11 16 13 9 9 9 10 9 8 9 12 14 15 16 13 13 15 16 14 14 15 17 18 11 3 2 4 11 12 8 13 12 12 18 15 17 21 20 16 29 28 29 27 27 25 26 29 22 21 21 24 21
14 13 13 13 12 11 11 11 11 10 5 4 2 2 2 1 1 1 1 6 9 1 2 7 8 5 7 5 6 8 11 12 10 6 12 6 11 13 13 10 3 9 6 10 12 14 15 13 12 10 13 14 17 17 18 20 18 13 12 14 10 10 11 14 7 10 9 11 15 16 23 20 6 8 16 25 29 28 29 30 29 28 27 29 27 25 23
14 14 14 13 13 13 12 12 12 12 10 5 3 4 3 3 2 1 1 5 9 7 5 6 6 9 7 7 10 12 11 12 11 13 12 11 13 10 5 7 10 7 7 13 14 15 15 16 17 15 17 12 10 15 19 19 19 19 17 16 15 15 13 9 7 8 8 6 8 15 12 4 1 8 16 20 24 25 24 25 22 24 26 27 27 25 25
15 14 14 14 14 14 14 14 14 13 13 6 5 5 3 3 3 4 4 4 9 7 4 8 10 10 8 9 10 9 5 7 5 3 8 4 9 12 12 5 3 0 4 6 11 10 12 9 13 11 14 11 13 10 11 20 21 19 19 18 17 20 15 12 12 11 15 12 15 21 11 14 5 4 5 10 12 9 15 20 21 24 24 23 24 23 23
16 17 17 15 14 15 16 14 14 14 13 11 5 4 4 4 4 3 2 5 10 10 6 9 0 1 3 6 4 8 7 7 8 9 5 4 6 6 10 10 3 4 4 9 6 4 6 8 11 12 13 11 15 14 8 5 3 14 19 17 16 15 18 12 14 8 12 15 15 14 13 16 13 15 8 12 17 19 19 17 18 8 18 18 14 14 13
18 18 16 16 16 16 16 16 15 15 14 14 5 5 5 6 5 3 4 5 3 10 8 10 11 8 8 9 7 9 6 5 5 5 5 5 6 6 4 4 5 4 3 4 3 4 5 9 13 11 12 10 9 10 6 4 5 6 4 10 13 14 14 14 12 9 10 15 14 12 9 7 1 7 11 17 15 17 12 7 12 8 14 16 16 18 17
17 17 17 16 17 17 16 16 16 15 15 14 5 5 6 6 6 5 5 4 5 11 3 1 3 4 3 5 2 5 5 8 6 6 5 4 4 3 5 4 3 1 4 1 2 2 2 6 7 10 11 7 12 12 14 10 14 11 6 3 7 8 10 10 16 15 14 14 13 11 4 4 10 16 15 17 10 6 2 11 4 7 8 13 16 16 15
19 18 17 17 16 18 17 17 17 17 16 16 7 4 4 5 7 5 2 4 7 9 11 5 4 5 9 7 8 6 4 3 4 2 5 4 3 2 2 2 2 6 2 4 2 3 4 4 8 8 12 5 7 7 13 8 12 10 6 7 7 4 5 7 15 12 16 19 17 11 9 3 12 14 18 20 9 5 7 7 9 12 9 12 13 13 13
20 19 19 18 18 18 19 18 18 18 17 16 7 2 5 6 6 7 4 3 5 9 5 2 7 7 6 4 7 4 2 2 0 4 4 6 6 3 3 3 2 6 2 1 3 1 4 4 3 3 9 8 5 7 3 1 5 3 4 6 6 8 8 5 7 13 13 15 18 17 7 4 10 15 11 17 9 9 4 12 17 6 12 14 10 14 13
20 20 20 19 19 19 18 19 18 18 18 17 8 6 3 5 8 10 8 6 4 10 11 10 4 8 4 8 8 7 3 3 4 7 6 10 2 5 6 6 4 3 5 1 2 4 2 5 4 2 3 3 3 3 5 7 2 2 6 5 8 5 6 6 8 8 9 8 12 13 12 4 17 13 11 12 9 9 10 13 9 4 11 14 15 11 13
22 21 21 21 19 19 19 19 19 18 18 19 13 4 7 6 8 7 8 9 5 8 12 9 6 12 10 13 12 10 8 11 8 8 6 8 3 1 3 4 4 1 3 1 3 2 1 2 4 3 1 1 6 4 6 9 13 7 6 7 8 7 12 8 3 3 5 5 5 1 6 9 4 9 3 9 6 8 10 9 7 9 9 12 12 13 12
20 21 22 22 20 20 19 19 19 19 17 18 15 3 6 4 6 7 8 7 8 10 8 3 1 4 7 9 7 5 9 12 13 10 9 9 3 9 4 3 4 2 3 2 1 1 2 2 0 1 4 4 1 6 5 9 11 9 6 2 9 2 3 4 9 4 5 5 8 12 15 4 2 1 6 10 12 7 4 4 7 11 14 7 10 14 13
22 21 20 22 21 22 21 20 19 18 19 17 10 4 8 4 5 7 7 8 6 5 4 7 6 7 8 9 7 10 13 10 8 6 7 7 7 6 9 9 8 3 1 3 7 7 5 3 7 4 6 4 7 7 4 7 5 4 10 3 6 8 11 5 6 7 8 11 8 12 13 12 13 14 5 8 8 1 5 6 11 8 7 10 9 9 12
21 23 23 22 21 22 21 21 21 20 19 18 13 4 6 6 4 3 3 5 5 7 7 8 8 10 10 13 16 14 12 11 11 13 11 10 10 8 4 4 3 1 3 6 8 6 4 3 5 4 9 5 4 6 8 8 7 3 7 10 7 3 5 10 9 10 12 14 10 11 7 15 18 16 8 2 6 7 5 8 6 8 9 7 5 6 7
23 23 22 21 23 22 21 22 21 21 20 20 15 8 4 2 3 6 5 3 2 3 7 5 11 15 9 8 10 9 11 13 13 14 13 11 12 11 14 12 7 9 10 8 1 2 1 4 4 4 9 6 5 7 6 7 7 6 9 6 6 8 2 10 9 13 10 13 11 14 16 15 12 10 13 9 5 7 6 4 5 6 6 5 5 6 7
21 21 22 23 22 20 21 23 22 21 20 18 12 5 6 7 6 8 3 2 3 3 6 8 13 2 4 5 9 11 9 10 12 14 13 14 14 16 16 12 9 5 5 2 3 8 6 4 4 4 4 5 7 6 7 9 8 3 8 10 7 8 6 9 4 11 11 14 13 14 13 10 14 13 7 9 8 3 3 3 4 6 5 7 7 7 9
20 21 21 21 22 23 23 23 21 21 21 21 11 7 7 6 7 10 7 5 2 6 6 10 8 4 2 10 9 2 4 7 7 8 10 12 13 11 12 12 13 10 9 8 7 7 3 5 4 8 8 6 3 4 3 4 4 5 6 6 5 6 9 11 9 11 11 9 9 6 11 13 14 11 6 2 3 3 3 4 4 5 6 8 9 10 9
21 22 21 20 22 22 22 23 22 23 22 18 12 9 5 5 7 9 9 8 8 10 7 8 6 6 1 5 2 3 6 6 9 10 11 12 13 13 12 13 13 11 9 9 7 6 8 10 11 6 2 1 4 7 7 5 4 6 8 9 9 10 11 8 10 10 13 12 11 10 13 14 10 12 7 5 3 5 7 6 4 4 4 6 8 11 12
21 21 21 21 21 23 23 21 21 22 21 15 7 4 6 8 7 9 10 10 10 8 10 10 8 7 11 6 5 9 7 8 9 11 11 11 12 12 12 12 11 9 7 4 6 6 5 7 4 4 4 5 2 4 3 5 7 11 10 12 11 9 11 14 15 17 18 17 16 7 4 11 14 7 2 1 3 3 3 6 8 7 7 7 7 8 11
20 20 22 22 22 21 21 21 23 21 17 7 1 1 4 4 7 9 12 11 9 5 7 8 11 6 2 4 7 6 6 7 10 12 12 11 11 10 10 11 10 10 8 6 5 8 8 6 4 4 4 4 5 2 5 5 8 8 9 11 13 11 11 14 15 15 16 12 4 2 6 9 6 3 1 1 3 4 4 5 6 10 9 7 10 11 10
20 20 21 22 21 20 20 21 20 20 16 4 4 1 3 5 2 8 12 10 10 7 3 3 9 5 6 3 4 9 8 8 9 11 13 13 12 12 11 8 8 7 7 7 7 10 7 3 4 5 4 7 6 3 7 8 10 7 10 13 13 14 15 17 16 13 6 4 5 3 4 7 4 5 4 2 8 8 10 10 11 8 10 11 9 9 10
20 20 21 21 20 20 21 21 21 18 8 6 7 6 4 4 3 1 6 7 8 6 6 5 6 5 4 3 3 4 9 11 8 4 3 5 9 9 6 7 8 8 7 9 7 2 5 9 9 8 8 10 9 5 7 8 12 13 12 13 13 15 15 14 13 3 6 3 5 9 10 12 1 2 6 9 8 7 7 11 11 11 11 11 13 12 11
22 23 22 20 19 19 21 19 17 13 8 8 11 15 14 17 17 9 6 4 4 4 3 4 6 3 3 5 1 2 3 2 2 4 5 5 6 4 5 7 7 6 7 7 4 5 5 7 6 8 12 7 5 6 9 11 13 14 17 17 17 15 11 4 2 6 4 5 5 1 7 7 10 10 6 6 7 7 9 10 12 12 12 13 16 17 15
20 20 22 21 19 20 20 19 16 16 11 4 5 6 7 15 15 17 5 5 1 2 1 3 3 6 5 2 3 4 5 6 5 6 5 4 3 4 5 3 5 5 5 10 7 3 1 1 6 10 3 4 6 4 9 11 14 18 18 18 7 5 4 4 1 3 5 5 5 4 7 10 10 9 9 10 11 10 8 8 7 10 14 13 15 14 13
21 20 20 21 19 18 20 16 4 3 4 4 4 5 5 12 14 14 12 7 3 3 3 4 3 0 2 1 3 5 3 3 4 6 8 5 4 7 3 3 2 6 5 5 3 6 6 7 6 2 8 2 1 6 6 12 16 16 13 6 7 8 7 5 1 6 6 6 7 6 8 7 7 9 11 12 11 9 10 12 9 7 12 15 15 16 14
20 19 19 18 15 14 5 5 3 4 3 4 6 3 8 11 13 8 12 8 4 4 5 4 4 7 5 6 5 3 3 3 2 1 3 1 1 0 2 3 4 7 2 3 6 6 8 5 3 7 6 7 9 9 11 7 8 4 7 6 7 7 5 5 9 12 10 6 7 9 3 5 7 10 11 11 11 10 11 13 14 10 11 14 17 17 16
19 19 17 13 3 5 3 4 2 5 6 5 4 5 3 9 5 6 2 1 2 0 2 3 5 7 9 6 1 4 4 2 1 2 1 3 4 2 3 3 7 2 1 3 5 6 10 4 3 8 7 9 10 1 8 7 7 5 5 6 7 8 7 6 8 11 16 14 2 2 5 8 9 6 9 11 13 13 14 16 14 12 15 18 19 18 17
18 15 3 3 3 2 1 4 4 5 9 5 4 3 2 0 2 1 1 1 2 3 3 1 5 1 1 5 5 3 3 4 2 4 2 3 1 3 1 2 5 2 5 3 6 6 1 2 4 7 7 7 6 8 8 8 8 7 7 6 8 8 8 7 9 11 12 15 15 14 16 15 15 10 4 11 13 16 16 14 13 12 12 13 14 16 17
12 1 2 2 4 3 4 3 4 7 10 4 4 2 1 1 0 1 3 2 2 2 2 5 7 6 6 4 4 1 5 4 1 1 3 3 3 5 1 1 3 2 3 1 7 7 3 4 3 4 7 6 4 5 7 7 8 7 7 6 7 7 8 7 6 7 6 5 8 8 6 11 15 22 19 17 16 15 16 15 15 15 14 14 15 14 15
3 3 4 3 6 3 1 3 5 6 2 3 1 2 0 0 2 3 2 1 2 2 3 6 5 6 8 10 7 7 3 3 5 5 4 3 1 3 1 2 4 2 3 3 6 4 3 3 3 2 7 3 3 5 6 7 6 6 7 7 7 9 8 7 7 6 8 10 10 12 10 10 11 14 16 17 17 19 21 19 17 16 15 16 17 18 19
2 2 1 4 3 3 2 1 3 2 2 2 2 0 2 1 2 1 0 2 2 3 1 2 1 2 3 5 6 8 1 3 1 2 3 3 2 4 1 2 1 2 2 3 4 2 1 1 2 4 5 3 3 5 6 7 5 8 7 7 8 9 8 9 9 9 10 10 10 10 10 10 12 13 14 16 16 17 18 19 20 20 20 20 20 19 15
7 6 3 4 3 3 1 1 1 2 1 1 2 2 3 1 1 1 2 4 4 1 4 1 2 2 3 6 5 3 3 1 2 1 2 1 3 2 2 1 1 2 3 3 0 1 1 3 1 5 2 2 3 5 6 7 7 8 9 7 9 7 10 10 11 9 9 11 12 12 12 11 13 13 13 14 16 17 18 19 21 22 20 19 19 18 17
5 7 5 4 2 1 2 2 2 1 3 3 2 1 1 1 3 4 2 1 0 2 3 1 1 1 1 2 1 0 3 0 1 0 2 2 0 2 1 1 1 1 4 1 1 0 1 2 3 3 3 2 3 4 6 6 8 8 8 10 7 9 10 12 11 12 10 11 13 13 14 14 14 13 13 16 19 23 20 16 18 20 20 19 19 19 18
5 4 2 1 2 3 2 2 2 3 1 2 3 4 3 0 2 1 0 3 1 1 2 2 2 3 2 1 2 0 1 2 2 1 0 0 2 1 1 2 3 4 2 1 1 3 5 3 1 1 1 2 2 5 8 9 9 10 10 7 9 9 10 12 12 13 14 10 10 11 12 13 14 14 12 12 13 19 21 19 16 18 20 20 19 19 17
5 1 2 2 2 3 3 2 2 3 5 4 4 3 4 7 6 7 7 1 2 2 1 3 2 2 3 1 1 1 1 1 2 3 1 2 0 1 2 3 2 1 1 3 1 2 2 5 1 1 4 8 8 8 7 8 8 10 13 14 9 9 11 13 14 13 13 13 13 13 13 13 13 14 13 13 13 13 16 20 19 18 18 18 18 18 17
4 5 3 3 2 0 3 0 1 0 2 1 2 3 3 2 1 1 1 2 2 4 4 3 3 1 0 2 2 1 1 2 1 1 2 1 2 3 3 0 2 0 2 1 3 7 9 0 2 3 6 7 9 9 8 8 8 8 9 15 16 14 12 12 13 14 14 15 15 14 15 13 13 14 16 15 14 16 15 16 16 17 17 18 18 18 18
2 1 2 1 2 1 2 2 3 2 1 2 1 1 2 4 2 3 1 2 1 2 3 3 0 1 1 0 1 1 1 0 1 1 3 1 3 2 2 2 3 2 3 5 5 5 2 1 3 4 7 9 10 9 9 9 8 8 11 11 13 15 15 14 14 15 15 15 15 15 15 14 14 15 15 16 15 14 16 16 16 15 17 18 19 18 18
4 1 3 3 3 2 4 2 3 3 2 2 1 3 3 3 3 2 3 2 3 2 2 2 1 1 2 2 2 2 1 1 1 3 3 2 1 1 0 0 2 2 2 4 6 0 1 2 5 8 8 7 9 12 11 10 10 10 11 13 14 15 16 16 16 16 15 17 16 16 15 16 15 15 15 17 17 16 15 15 16 15 14 15 15 16 17
3 3 3 2 0 1 1 3 7 5 1 2 3 3 3 4 3 0 4 2 2 1 2 1 0 1 1 1 2 1 2 1 2 2 1 0 2 3 2 3 1 4 2 2 1 1 2 6 7 8 10 9 8 9 10 10 11 13 13 14 15 15 15 16 16 17 16 15 14 15 16 16 16 16 16 16 16 16 15 15 14 13 13 15 16 17 18
3 1 4 3 4 2 1 2 6 4 1 0 1 2 2 3 3 2 2 2 2 2 2 3 3 1 1 2 1 1 2 1 2 1 2 3 2 2 1 4 4 4 1 1 3 5 5 6 8 10 8 9 10 10 12 12 11 12 12 13 13 14 15 16 18 17 15 14 15 16 17 16 15 14 16 17 16 16 16 14 13 13 13 13 15 16 14
3 4 3 3 1 2 2 4 7 5 3 3 3 1 2 1 1 1 4 3 4 2 2 2 1 1 0 1 1 0 2 1 1 3 4 4 1 2 4 9 3 1 5 3 4 6 7 7 7 9 11 11 10 11 11 13 13 13 13 13 14 14 14 15 16 16 15 14 14 16 16 16 15 16 16 15 16 16 15 13 11 11 13 13 13 13 14
3 3 1 2 4 5 5 4 5 5 3 3 3 1 1 1 3 2 5 3 1 2 2 0 1 1 1 3 3 1 1 1 1 1 1 2 2 2 1 0 1 3 4 6 7 6 7 6 6 8 9 12 13 13 13 12 13 13 13 13 14 15 15 15 14 14 14 15 15 15 17 17 17 16 14 14 14 13 12 11 11 12 13 11 11 14 14
Wind_Direction
348 327 331 329 332 351 355 358 11 17 8 14 340 305 236 207 236 20 170 171 155 155 208 199 210 221 239 5 272 163 244 227 183 233 184 235 170 249 233 227 243 224 240 214 235 202 240 191 232 210 233 248 257 262 301 335 338 351 288 347 292 54 245 255 268 286 315 303 79 47 68 142 343 312 316 133 214 200 239 246 247 252 255 250 247 241 257
349 355 340 325 323 4 355 10 15 15 21 346 298 274 259 270 284 273 211 194 209 181 207 217 220 226 254 222 240 180 234 216 248 239 206 188 180 214 221 242 222 252 203 188 223 164 266 201 230 244 227 248 233 250 263 267 252 263 220 167 263 321 251 191 252 265 299 321 314 257 75 65 173 186 224 212 228 254 261 304 67 260 234 255 259 262 263
316 340 359 360 353 326 320 358 6 13 6 358 318 325 310 319 272 237 199 211 196 212 199 234 218 224 235 224 239 241 245 220 231 238 238 181 215 248 247 227 152 234 185 233 223 210 220 268 216 210 207 247 223 252 235 250 250 207 227 179 145 226 190 170 190 217 229 231 221 235 238 211 221 236 231 215 197 217 229 253 239 252 236 239 247 263 254
304 304 318 338 352 1 347 326 343 2 14 346 13 286 308 226 274 231 205 181 249 256 229 236 231 239 227 241 239 235 247 226 230 222 251 229 228 221 239 344 192 219 201 229 228 237 216 222 221 198 232 241 265 220 230 222 229 189 182 188 129 202 151 198 221 218 228 225 233 52 91 54 235 246 216 234 219 201 211 227 248 250 253 246 241 252 264
301 296 299 309 337 349 351 353 347 355 347 345 321 325 228 311 282 250 251 218 207 238 222 247 211 234 203 253 149 230 234 241 267 174 264 188 230 238 228 224 211 228 221 236 249 235 243 234 241 232 232 215 231 307 171 216 213 165 160 222 100 127 211 216 223 230 235 244 250 252 256 251 250 244 243 237 234 232 229 220 237 224 246 254 234 245 250
298 300 299 300 304 319 333 340 355 345 333 346 351 220 268 234 249 299 312 320 289 245 229 255 318 321 265 244 203 239 240 224 237 186 229 221 176 202 277 227 218 233 231 237 248 219 244 227 238 234 234 261 254 266 219 223 193 166 181 198 180 190 227 223 226 238 231 238 242 245 246 240 241 243 246 247 243 239 234 235 236 234 235 250 249 245 249
288 295 298 303 300 299 305 318 326 347 341 354 41 233 285 250 314 283 319 302 304 286 316 318 295 292 293 297 258 275 257 256 236 243 311 198 219 200 246 215 221 226 227 231 241 232 251 245 232 231 229 221 237 253 268 238 212 200 195 186 183 157 234 226 218 237 228 231 232 234 239 241 242 239 243 243 244 245 236 241 239 238 246 254 260 257 254
282 282 284 284 287 289 294 304 309 314 356 33 100 241 228 286 255 292 5 266 290 299 319 326 318 297 310 303 190 251 206 289 300 314 295 288 279 212 235 252 274 286 268 242 236 230 231 250 266 273 272 263 214 244 230 272 230 207 208 194 218 202 224 191 229 239 233 231 230 233 231 235 240 238 240 240 246 248 245 248 251 260 261 258 255 252 256
281 281 282 279 278 276 279 279 292 300 1 40 179 261 196 242 4 298 321 305 266 257 265 300 309 296 245 248 264 259 290 316 9 312 266 251 257 284 324 14 337 343 328 321 302 329 342 333 311 320 326 297 336 302 9 232 251 189 223 181 236 194 253 217 230 239 238 226 230 232 231 235 236 241 241 245 243 245 244 246 241 241 249 249 251 251 253
276 276 273 272 270 273 273 278 279 291 286 141 261 178 275 65 311 53 161 269 249 269 307 285 324 261 248 253 301 322 357 348 349 340 267 83 58 54 1 350 341 307 310 314 333 333 317 313 307 300 287 280 268 264 272 279 270 263 219 215 195 187 203 221 228 245 233 220 226 230 235 240 236 229 234 239 240 241 246 243 243 239 242 250 249 247 241
276 276 274 273 275 271 271 269 268 266 268 145 196 250 349 100 351 11 304 265 273 251 253 260 255 270 306 296 294 307 312 312 325 313 299 345 320 333 344 332 324 314 310 333 319 303 296 290 285 278 270 262 265 266 269 262 254 253 246 216 218 225 233 241 216 247 249 218 236 234 241 230 225 202 217 220 233 236 240 242 241 243 233 242 234 247 250
276 273 272 273 276 278 268 264 257 254 232 205 159 215 217 123 94 204 279 262 268 283 182 254 254 291 267 314 325 303 291 298 304 315 297 290 296 313 321 318 304 299 340 346 319 307 296 285 267 252 244 251 258 260 254 256 256 245 232 237 242 224 215 237 219 249 247 237 239 239 228 240 230 208 207 214 225 232 238 242 238 243 245 249 252 249 247
274 274 273 270 267 265 266 266 264 259 235 182 164 207 243 153 147 191 215 252 266 263 251 246 256 268 289 320 304 284 295 300 297 295 292 298 298 299 297 315 309 294 12 325 320 328 323 313 306 293 285 283 247 241 246 243 244 239 230 218 232 242 233 239 237 236 262 231 221 244 242 123 286 188 200 210 224 230 245 257 256 256 250 249 250 249 248
263 267 270 269 264 259 259 257 255 254 251 212 175 204 202 137 171 208 206 248 261 262 268 278 257 264 268 261 265 284 292 276 282 286 287 291 299 297 298 286 271 3 300 315 322 319 307 322 305 312 298 297 284 264 229 226 229 233 235 227 219 228 236 222 247 200 239 236 230 243 272 272 183 161 216 189 215 214 222 249 248 241 249 250 255 256 258
270 271 266 264 267 267 260 259 257 257 257 245 178 203 188 201 183 182 237 252 268 276 261 251 306 80 302 284 296 291 281 289 295 279 275 298 276 259 274 289 303 320 333 326 298 295 269 307 290 300 293 294 286 288 326 299 247 227 234 235 225 222 233 226 242 222 218 249 252 257 245 244 245 231 221 211 211 213 223 229 261 20 7 8 340 313 317
268 261 261 263 265 266 264 260 258 254 252 254 213 199 205 198 190 172 213 210 260 273 258 231 236 247 256 258 252 254 271 276 266 286 294 266 253 289 283 300 312 329 330 264 243 272 291 277 273 278 268 276 288 302 266 312 309 300 271 229 229 230 236 249 247 276 243 243 248 243 249 260 111 264 235 229 222 224 241 280 267 30 1 21 31 32 27
273 278 277 272 263 262 261 260 258 257 253 249 231 195 225 189 186 197 198 223 212 241 273 64 0 20 317 275 250 266 242 260 267 282 293 273 272 276 304 309 324 345 246 278 272 243 285 266 262 265 273 268 270 262 287 270 282 290 308 340 313 268 245 239 239 234 240 256 261 265 251 313 2 344 345 322 300 268 7 260 212 21 17 19 22 27 24
267 267 269 267 264 260 259 258 256 253 252 247 230 202 225 192 185 165 189 206 235 258 253 237 205 227 241 243 251 250 267 267 264 232 255 283 319 304 273 345 332 280 233 282 243 259 241 248 268 271 274 270 295 325 270 308 284 293 313 307 299 283 267 237 260 257 256 255 260 268 278 32 12 348 340 332 311 69 214 240 358 337 356 18 12 12 5
267 266 263 264 264 260 256 254 254 253 251 249 239 161 234 198 179 181 180 188 220 254 254 163 188 219 236 246 232 235 180 178 181 283 256 289 249 212 163 226 256 298 322 113 310 247 249 256 259 245 267 279 253 257 343 354 284 60 308 335 334 326 300 272 247 243 244 253 256 255 273 96 4 350 7 353 332 257 8 326 295 311 358 357 5 350 349
266 264 263 260 259 261 261 259 255 252 252 250 235 217 221 181 194 189 187 221 223 256 264 248 199 228 218 231 238 239 269 252 186 243 248 257 315 20 333 325 324 102 326 171 193 240 211 250 252 345 317 302 300 304 320 227 279 3 329 303 280 288 307 298 294 301 292 262 262 253 245 38 24 346 6 39 51 288 289 298 311 46 3 341 334 332 333
263 261 259 261 261 259 258 257 257 258 254 249 235 183 257 216 205 205 203 211 211 258 266 255 219 227 225 241 237 230 222 235 220 232 224 243 224 243 189 231 223 157 214 164 194 246 235 264 298 250 257 68 254 332 274 313 298 269 233 263 278 312 288 280 270 319 289 288 267 234 47 320 342 31 340 321 294 271 284 279 319 330 337 333 318 320 322
265 266 264 263 264 263 261 259 256 253 250 253 251 189 235 201 178 202 206 195 222 228 249 257 109 231 236 237 242 230 231 236 235 227 240 258 196 219 228 243 215 156 218 127 48 323 282 208 239 12 288 280 323 235 270 294 277 297 298 222 280 173 174 237 268 316 327 273 312 312 319 359 195 48 297 302 300 279 257 291 311 332 323 315 316 306 311
263 263 265 263 260 259 258 257 256 255 254 249 243 190 230 204 204 206 178 222 240 265 273 274 263 259 250 249 242 233 232 228 236 236 221 235 258 239 231 236 247 190 232 221 210 222 219 197 238 205 259 204 236 266 248 201 274 279 275 277 288 316 294 306 293 266 270 260 256 285 304 312 309 303 312 314 304 197 199 286 308 289 285 293 289 307 308
263 262 259 260 261 260 260 259 258 257 252 247 239 179 233 221 201 154 211 228 226 257 258 237 244 240 222 237 241 240 243 241 229 228 216 195 236 253 226 218 209 216 215 214 190 189 208 188 209 210 238 229 253 250 263 259 225 252 288 290 276 301 323 304 282 304 313 287 320 293 301 304 305 305 317 241 219 214 259 308 303 301 298 305 311 317 327
260 259 259 257 259 258 260 261 257 256 252 249 240 215 179 201 168 166 162 222 220 192 256 267 229 240 239 228 242 239 222 223 227 232 229 221 219 233 248 237 197 214 237 233 141 198 182 225 239 195 234 221 191 251 203 248 266 236 259 258 315 285 333 306 280 280 263 280 293 303 299 279 276 305 313 313 278 297 326 335 325 334 345 337 346 348 339
268 266 264 262 262 264 265 263 260 255 253 252 246 180 179 216 190 188 188 242 258 206 239 251 274 229 192 220 232 226 218 215 222 226 225 224 222 226 239 252 248 208 238 199 154 218 215 253 191 218 209 263 199 231 235 221 245 277 255 256 231 264 319 268 288 286 291 287 279 261 271 293 296 293 302 302 317 15 8 354 1 353 355 346 343 338 319
268 266 266 265 263 259 256 256 255 257 254 252 245 222 205 210 171 172 179 189 222 290 221 252 269 290 164 220 239 206 198 218 219 222 231 226 227 227 231 241 248 247 234 241 233 226 206 208 202 236 214 232 210 215 213 268 225 253 262 259 257 273 255 264 288 288 275 274 287 307 302 296 300 300 289 330 33 43 349 339 355 347 343 335 327 318 311
270 269 265 263 263 262 259 257 255 253 251 250 252 237 218 210 196 192 195 174 188 238 273 268 266 251 280 262 260 227 223 193 207 216 219 226 222 220 219 228 237 238 234 220 232 215 213 217 225 229 242 285 246 254 231 262 268 264 240 245 231 239 255 266 263 261 274 271 267 275 282 287 270 281 318 99 82 12 348 330 318 312 315 317 320 315 317
271 270 267 264 262 260 259 257 255 254 253 252 238 251 261 232 222 196 200 192 195 236 243 254 268 273 264 271 150 221 223 210 212 213 220 224 222 217 216 217 225 233 245 241 242 250 238 240 220 189 201 207 201 240 211 226 219 239 229 235 235 236 237 243 249 256 264 273 277 280 255 275 289 309 36 41 38 49 335 316 316 316 326 328 319 310 307
271 274 275 270 267 263 256 253 253 251 254 257 156 103 259 266 185 194 196 192 187 196 232 250 253 253 347 256 231 192 206 211 220 221 221 223 225 222 216 216 223 220 208 208 208 236 236 245 227 229 233 202 231 226 233 233 244 242 240 240 242 247 243 243 247 250 260 271 305 242 256 274 285 308 270 153 49 15 340 307 312 319 322 330 318 313 307
268 269 270 272 267 261 258 255 255 255 248 202 108 156 200 264 191 193 188 185 180 170 220 233 253 296 283 230 195 205 197 203 214 219 225 223 225 224 220 210 227 208 226 226 220 232 228 223 217 229 220 209 217 195 235 249 256 253 242 239 242 245 244 249 249 260 288 317 313 289 263 261 266 327 303 3 3 358 340 324 322 327 318 317 303 293 294
268 269 270 267 263 260 256 252 248 246 231 152 201 191 176 163 160 148 198 185 150 178 205 235 254 232 248 263 214 195 189 206 206 201 222 181 233 224 235 193 224 211 219 233 228 242 223 234 240 243 239 228 226 253 245 241 249 251 251 249 246 245 247 256 269 301 68 357 4 322 294 285 346 74 293 333 340 338 332 314 313 319 317 311 302 295 280
264 264 264 265 266 262 257 254 256 248 224 226 237 252 272 273 264 247 181 143 144 208 176 203 219 221 240 239 325 310 157 91 202 175 248 182 227 171 222 214 226 237 215 239 220 237 213 228 230 249 241 227 236 249 245 239 246 251 251 254 254 256 265 301 65 91 66 31 25 249 278 306 304 321 337 317 320 331 324 314 313 319 315 312 308 308 311
270 269 268 265 261 257 254 249 251 262 275 244 256 238 224 231 239 242 148 124 165 265 214 212 205 221 232 355 50 281 153 160 210 167 242 238 182 156 205 173 197 208 199 212 223 238 288 218 213 237 251 226 217 241 246 243 244 250 252 253 277 343 341 303 249 86 43 23 23 320 285 282 295 305 320 323 320 319 310 302 313 317 306 304 299 299 301
270 267 264 266 265 261 254 249 243 200 191 224 244 254 221 228 219 218 185 138 126 234 188 241 163 169 297 340 173 256 188 111 208 201 198 260 153 186 187 172 223 192 237 177 246 224 228 221 214 215 237 220 188 241 250 252 249 251 263 281 25 334 2 332 331 23 360 356 324 295 281 289 323 332 316 313 308 311 317 309 310 308 302 299 299 298 301
270 272 271 265 261 263 277 261 205 166 170 202 228 166 205 222 231 218 184 180 174 183 192 204 185 220 205 241 255 267 108 228 202 134 202 151 327 219 127 154 242 225 177 185 227 202 225 201 128 235 218 235 232 228 253 271 288 344 55 54 27 34 0 336 327 333 325 323 291 268 281 354 331 304 306 298 302 307 309 303 303 304 292 294 295 298 299
272 275 275 276 309 85 190 208 216 195 211 175 190 235 212 93 36 52 47 84 269 136 197 163 192 209 193 217 155 253 108 242 166 165 193 179 209 227 150 189 221 224 102 226 207 201 233 170 227 241 224 227 241 354 48 49 44 31 30 34 24 15 353 349 360 345 327 329 339 118 360 313 305 299 296 303 306 311 308 305 308 313 308 303 302 302 299
268 266 235 141 113 204 204 221 206 229 193 192 200 94 343 358 160 115 166 169 233 151 239 143 226 208 34 133 207 231 104 248 88 166 276 216 167 255 167 180 219 174 241 228 230 187 173 144 212 226 248 230 84 59 49 54 53 41 27 16 24 5 345 337 5 353 347 339 339 342 338 330 319 307 286 298 307 308 304 301 300 294 288 285 283 289 296
266 217 105 198 140 199 194 242 234 130 96 64 76 77 355 2 126 206 214 179 151 205 209 184 224 172 169 181 246 222 158 185 117 135 184 272 132 290 53 171 281 109 273 177 276 146 234 223 219 218 248 225 145 29 27 24 49 38 9 351 11 354 334 333 357 351 321 281 283 302 300 304 309 308 314 314 308 301 294 296 296 297 296 292 290 290 287
116 181 179 174 211 190 119 251 149 112 67 72 346 112 191 206 144 255 96 182 216 227 156 233 197 194 188 211 218 249 157 124 206 239 189 294 126 165 261 78 259 107 237 179 241 127 165 219 222 177 249 202 99 29 30 11 7 14 358 348 332 337 323 314 316 310 295 289 285 285 288 282 284 286 293 297 298 298 300 299 297 294 294 291 291 291 288
197 144 178 207 193 140 189 199 36 51 93 107 62 329 122 262 180 193 99 254 212 246 207 192 93 171 233 189 198 232 274 130 248 124 141 198 242 83 84 208 245 92 229 222 272 117 176 198 201 194 233 51 33 19 5 3 349 343 344 317 328 317 309 309 300 299 298 293 292 287 286 283 280 279 279 280 282 283 284 289 292 295 295 294 293 290 290
195 187 188 135 108 110 78 11 110 101 88 143 122 206 183 204 50 2 177 176 226 224 296 101 320 197 248 176 197 148 286 172 136 125 90 300 279 166 221 292 342 171 229 228 67 325 86 243 243 256 77 51 56 6 2 339 339 335 324 333 315 315 311 306 304 296 296 293 295 293 287 283 279 277 278 282 282 282 283 288 288 289 288 288 289 289 289
145 111 98 88 84 153 166 157 201 129 141 162 123 250 160 147 194 168 226 198 291 124 252 47 229 191 306 60 345 209 177 211 156 211 99 201 290 59 121 267 96 287 236 318 64 21 245 241 260 250 79 55 45 338 357 323 322 308 311 316 316 312 311 306 303 302 296 291 289 289 291 289 284 280 280 279 282 282 280 277 282 287 291 291 289 289 288
138 155 118 132 124 254 138 203 176 69 162 150 159 203 167 136 280 127 164 245 177 257 271 148 230 116 199 316 149 271 28 354 86 70 4 296 83 228 76 231 218 244 63 9 108 203 227 214 208 119 139 312 317 343 332 331 325 317 312 313 313 308 303 305 303 301 300 293 281 284 286 286 287 287 283 278 279 285 290 289 287 285 287 288 287 286 286
127 173 128 131 154 216 103 255 15 131 184 201 173 211 176 194 211 197 194 281 46 192 20 32 28 94 165 250 60 310 167 205 4 98 239 99 41 221 131 253 242 30 139 234 256 301 348 244 87 2 22 340 337 330 326 323 322 320 314 312 312 312 314 311 308 305 301 304 302 303 297 296 293 291 289 286 283 278 286 291 295 292 290 288 287 287 287
165 159 135 138 188 237 123 181 74 44 277 175 198 174 179 233 156 170 13 344 317 355 42 351 333 51 15 283 133 228 22 99 61 226 179 119 127 249 222 227 74 50 259 120 226 230 238 196 40 333 336 316 315 317 320 309 314 310 319 315 317 316 311 304 303 304 303 306 307 303 299 299 296 298 297 293 290 290 284 282 285 286 289 290 291 293 295
120 122 122 92 124 224 79 151 218 187 183 119 159 181 145 144 130 117 55 352 30 325 310 270 296 307 129 307 25 340 27 66 158 252 75 93 195 251 41 105 242 179 200 240 234 242 240 106 279 325 309 315 313 313 310 315 310 314 307 300 302 306 310 310 307 307 307 306 302 303 301 302 299 295 292 293 290 285 284 284 282 285 291 293 294 297 298
131 139 96 127 201 146 167 225 118 90 30 113 177 118 132 146 94 41 359 339 290 306 342 7 62 17 356 296 79 195 245 166 38 276 159 218 32 40 318 13 236 251 185 199 238 29 4 345 325 313 309 308 310 313 316 315 315 310 308 306 306 308 310 311 311 309 310 309 308 305 303 303 301 299 297 294 293 293 292 295 297 296 293 297 302 305 305
122 125 141 169 141 101 100 128 122 76 354 17 54 56 64 79 83 54 307 344 359 324 269 127 195 75 202 123 143 179 242 180 153 237 68 15 161 220 160 236 191 247 263 65 157 112 294 328 298 301 304 307 307 307 305 308 310 312 312 310 309 306 307 306 306 307 306 303 302 302 302 301 300 299 298 298 298 301 304 304 304 306 312 312 313 312 307
83 60 29 67 80 27 79 95 81 99 98 154 59 45 38 84 76 349 357 5 338 328 261 214 242 135 291 75 288 154 244 224 176 305 89 226 203 250 189 242 216 219 223 64 283 299 299 304 310 306 306 309 307 308 309 311 309 306 305 303 301 302 301 304 304 305 303 301 301 301 300 301 302 302 304 304 303 303 307 311 314 315 312 314 314 309 321
27 75 91 324 115 178 118 155 175 176 207 195 134 52 42 58 60 306 5 8 332 15 53 124 149 115 25 132 137 358 239 67 63 207 171 209 190 179 203 238 244 145 245 251 268 294 302 297 305 304 308 307 310 306 305 305 305 303 302 301 300 300 301 300 298 300 301 301 300 302 303 303 301 300 299 301 305 310 310 309 314 315 318 321 317 327 332
60 65 78 36 47 47 67 100 62 86 91 106 100 23 62 98 8 349 336 350 6 116 189 252 100 127 125 201 221 197 354 46 219 44 266 240 66 194 260 227 258 255 282 304 300 286 285 286 285 291 298 303 308 309 305 302 301 300 300 301 304 306 304 304 302 302 303 304 305 304 302 299 296 297 301 308 312 310 314 319 324 326 328 325 328 330 330